yyyy,mm,dd,hh,mm,ss,etime,enc0,enc1,enc2,enc3,k0,k1,k2,k3,T1,T2,ang,emis,ssst
2022,07,03,16,57,16,01.014110,265.02,325.02,45.08,135.08,175147,217126,92699,154068,26.253,42.555,141.6,0.990000,17.31
2022,07,03,17,02,00,01.014554,265.08,324.92,44.90,134.95,175581,217756,92360,154035,26.432,42.734,141.5,0.990000,17.33
2022,07,03,17,06,44,01.015038,265.02,325.02,44.90,135.00,176129,218244,72202,153883,26.621,42.918,141.5,0.990000,17.28
2022,07,03,17,11,28,01.015522,265.02,324.98,45.02,135.00,176516,218769,72958,153942,26.790,43.078,141.6,0.990000,17.34
2022,07,03,17,16,12,01.020006,265.02,325.05,45.06,135.08,176898,219190,64502,153984,26.937,43.213,141.6,0.990000,17.38
2022,07,03,17,20,57,01.020451,265.00,324.99,44.95,135.00,177383,219544,76161,154133,27.114,43.390,141.5,0.990000,17.33
2022,07,03,17,25,41,01.020935,265.00,324.98,44.95,135.08,178048,220308,78992,154303,27.327,43.590,141.6,0.990000,17.34
2022,07,03,17,30,25,01.021419,265.02,325.03,45.04,135.05,178465,220903,94689,154758,27.524,43.764,141.6,0.990000,17.54
2022,07,03,17,35,09,01.021903,265.08,325.05,44.95,135.00,178982,221434,91560,154560,27.701,43.933,141.6,0.990000,17.42
2022,07,03,17,39,53,01.022346,264.99,325.05,44.95,135.00,179476,221829,84488,154408,27.881,44.100,141.6,0.990000,17.33
2022,07,03,17,44,37,01.022830,264.95,325.03,45.05,135.05,179888,222338,73295,154330,28.021,44.219,141.6,0.990000,17.34
2022,07,03,17,49,21,01.023315,265.00,325.02,44.90,135.05,180270,222673,86239,154479,28.130,44.317,141.6,0.990000,17.28
2022,07,03,17,54,05,01.023758,265.07,325.03,44.91,135.00,180567,222997,83483,154813,28.251,44.436,141.6,0.990000,17.44
2022,07,03,17,58,50,01.024243,265.08,324.92,44.95,135.08,180920,223415,81774,155274,28.378,44.551,141.6,0.990000,17.65
2022,07,03,18,03,34,01.024727,265.08,325.02,44.94,135.08,181173,223680,81830,155372,28.484,44.646,141.6,0.990000,17.70
2022,07,03,18,08,17,01.025209,265.00,324.98,44.90,135.05,181481,223957,84006,155254,28.586,44.748,141.6,0.990000,17.59
2022,07,03,18,13,00,01.025653,265.02,324.93,44.95,135.08,181842,224416,76173,155079,28.705,44.873,141.6,0.990000,17.53
2022,07,03,18,17,44,01.030136,265.02,324.98,44.90,135.05,182225,224892,75833,154566,28.843,45.015,141.6,0.990000,17.28
2022,07,03,18,22,27,01.030619,265.00,325.02,45.00,135.07,182626,225325,62839,154552,28.992,45.165,141.6,0.990000,17.31
2022,07,03,18,27,10,01.031102,265.06,325.02,44.90,135.05,183004,225846,82609,154870,29.137,45.312,141.6,0.990000,17.38
2022,07,03,18,31,54,01.031546,265.08,324.98,44.99,134.95,183359,226156,89845,155180,29.249,45.426,141.5,0.990000,17.43
2022,07,03,18,36,37,01.032029,265.00,325.02,45.05,135.08,183562,226361,98722,155165,29.312,45.481,141.6,0.990000,17.36
2022,07,03,18,41,21,01.032513,265.00,324.98,44.98,135.08,183582,226382,104366,154752,29.337,45.486,141.6,0.990000,17.18
2022,07,03,18,46,05,01.032957,264.96,324.92,44.96,135.00,183612,226066,98582,154132,29.312,45.436,141.5,0.990000,16.80
2022,07,03,18,50,49,01.033441,265.02,325.02,44.90,135.05,183484,226008,99307,154246,29.263,45.364,141.6,0.990000,16.90
2022,07,03,18,55,32,01.033924,265.00,324.92,45.02,135.05,183303,225611,99070,153941,29.198,45.284,141.6,0.990000,16.72
2022,07,03,19,00,16,01.034408,264.95,325.02,45.05,134.95,183042,225455,98418,153719,29.103,45.184,141.5,0.990000,16.68
2022,07,03,19,05,00,01.034852,265.00,325.02,44.90,135.07,182753,225018,95926,154004,28.948,45.037,141.7,0.990000,16.75
2022,07,03,19,09,44,01.035335,264.99,324.97,45.00,134.95,182234,223789,94435,153196,28.733,44.836,141.6,0.990000,16.16
2022,07,03,19,14,27,01.035818,265.02,324.92,44.95,135.00,181429,223492,96466,153069,28.489,44.606,141.7,0.990000,16.37
2022,07,03,19,19,09,01.040300,265.02,324.92,44.90,134.95,180896,222359,95993,152905,28.273,44.398,141.6,0.990000,16.13
2022,07,03,19,23,53,01.040744,265.00,325.02,44.90,135.08,180438,222460,98545,152843,28.089,44.221,141.7,0.990000,16.28
2022,07,03,19,28,35,01.041226,264.95,325.02,45.03,134.95,179891,221382,100033,154312,27.921,44.064,141.6,0.990000,16.88
2022,07,03,19,33,19,01.041710,265.01,325.02,44.95,135.05,179460,221599,99416,154791,27.754,43.904,141.7,0.990000,17.31
2022,07,03,19,38,04,01.042155,265.00,325.05,45.05,135.05,178989,221003,100409,154667,27.588,43.743,141.7,0.990000,17.25
2022,07,03,19,42,47,01.042638,265.08,325.02,44.90,134.95,178613,220536,98834,154341,27.429,43.591,141.6,0.990000,17.09
2022,07,03,19,47,30,01.043121,265.07,324.98,44.90,135.00,178217,220009,98888,154097,27.294,43.464,141.7,0.990000,16.99
2022,07,03,19,52,14,01.043604,265.02,324.98,45.00,135.00,177890,219788,97059,153779,27.186,43.363,141.7,0.990000,16.91
2022,07,03,19,56,58,01.044048,265.08,324.92,45.00,135.00,177604,219573,97807,153624,27.084,43.265,141.7,0.990000,16.88
2022,07,03,20,01,41,01.044531,265.00,325.05,44.90,135.08,177317,219277,97244,153453,26.999,43.184,141.8,0.990000,16.84
2022,07,03,20,06,24,01.045014,265.07,324.94,44.98,135.05,177115,218419,95471,153515,26.948,43.133,141.7,0.990000,16.75
2022,07,03,20,11,07,01.045458,265.00,324.92,44.90,135.08,177056,218969,96404,153446,26.918,43.105,141.8,0.990000,16.87
2022,07,03,20,15,51,01.045941,265.00,324.98,45.01,134.95,177065,218974,96906,153456,26.905,43.095,141.6,0.990000,16.85
2022,07,03,20,20,35,01.050425,265.02,325.05,44.90,135.00,177006,218903,95145,153649,26.895,43.086,141.7,0.990000,16.96
2022,07,03,20,25,18,01.050907,264.95,324.98,44.90,135.00,176922,218916,93355,153784,26.882,43.075,141.7,0.990000,17.08
2022,07,03,20,30,00,01.051350,265.08,325.02,44.95,135.05,176834,218855,95226,153724,26.861,43.059,141.7,0.990000,17.06
2022,07,03,20,34,43,01.051832,265.02,324.92,44.90,134.95,176850,218637,96857,153889,26.827,43.033,141.6,0.990000,17.03
2022,07,03,20,39,26,01.052315,264.95,325.05,44.95,135.00,176829,218756,86319,153953,26.802,43.014,141.7,0.990000,17.12
2022,07,03,20,44,08,01.052758,265.00,324.93,44.95,135.00,176703,218711,82756,153937,26.792,43.009,141.7,0.990000,17.19
2022,07,03,20,48,52,01.053241,265.00,324.98,44.92,135.00,176722,218710,87207,153974,26.804,43.026,141.7,0.990000,17.19
2022,07,03,20,53,34,01.053723,265.08,324.92,44.95,135.05,176809,218625,93105,154059,26.808,43.026,141.7,0.990000,17.12
2022,07,03,20,58,17,01.054206,265.08,325.02,44.98,134.95,176642,218580,86841,153966,26.761,42.977,141.6,0.990000,17.17
2022,07,03,21,03,00,01.054649,264.98,324.92,45.05,135.05,176510,218463,86447,153932,26.701,42.922,141.7,0.990000,17.16
2022,07,03,21,07,42,01.055131,265.02,324.98,44.96,135.05,176497,218396,72445,153728,26.669,42.899,141.7,0.990000,17.08
2022,07,03,21,12,25,01.055614,264.95,324.92,45.00,135.05,176420,218463,81315,153693,26.663,42.901,141.8,0.990000,17.08
2022,07,03,21,17,08,01.060057,265.02,324.98,45.00,134.95,176347,218296,80274,153798,26.633,42.870,141.6,0.990000,17.11
2022,07,03,21,21,52,01.060541,264.95,324.98,44.93,135.07,176257,218217,85684,153752,26.599,42.837,141.7,0.990000,17.08
2022,07,03,21,26,37,01.061025,265.08,324.92,45.00,134.95,176221,218034,77888,153648,26.550,42.787,141.5,0.990000,17.00
2022,07,03,21,31,20,01.061509,265.00,324.98,44.99,135.05,176030,217945,76096,153553,26.506,42.748,141.6,0.990000,17.03
2022,07,03,21,36,04,01.061952,265.01,325.02,44.91,135.08,175946,217955,74768,153569,26.497,42.741,141.6,0.990000,17.09
2022,07,03,21,40,47,01.062436,265.08,324.98,45.05,134.95,176013,217826,80594,153634,26.493,42.728,141.5,0.990000,17.02
2022,07,03,21,45,31,01.062920,265.02,324.92,45.00,135.08,175882,217696,79606,153646,26.461,42.689,141.6,0.990000,17.06
2022,07,03,21,50,14,01.063402,264.96,325.05,45.00,134.95,175703,217527,91074,153909,26.383,42.605,141.5,0.990000,17.14
2022,07,03,21,54,57,01.063845,265.07,325.05,44.96,135.05,175413,217089,81233,153737,26.256,42.476,141.6,0.990000,17.08
2022,07,03,21,59,40,01.064328,264.98,324.92,45.05,134.95,175036,216563,87068,153751,26.093,42.317,141.5,0.990000,17.03
2022,07,03,22,04,23,01.064811,264.95,325.02,44.95,135.00,174463,215939,83640,153626,25.888,42.117,141.5,0.990000,17.03
2022,07,03,22,09,06,01.065254,265.02,324.98,44.97,134.95,173838,215230,91014,153558,25.647,41.885,141.5,0.990000,16.98
2022,07,03,22,13,49,01.065737,265.02,324.92,44.95,135.00,173145,214380,89814,153527,25.390,41.641,141.5,0.990000,16.99
2022,07,03,22,18,32,01.070220,265.01,325.03,44.90,135.05,172404,213730,84263,153300,25.137,41.401,141.5,0.990000,17.01
2022,07,03,22,23,15,01.070703,264.99,324.92,44.95,134.95,171824,213150,74402,153256,24.921,41.202,141.4,0.990000,17.07
2022,07,03,22,27,57,01.071145,265.02,324.98,44.98,134.95,171477,212873,85192,153345,24.801,41.103,141.3,0.990000,17.10
2022,07,03,22,32,41,01.071628,265.02,324.93,44.90,135.05,171411,212947,72090,153194,24.790,41.110,141.5,0.990000,17.13
2022,07,03,22,37,24,01.072112,265.02,325.02,45.05,135.05,171587,213209,67210,153146,24.854,41.184,141.5,0.990000,17.13
2022,07,03,22,42,07,01.072554,265.02,324.98,44.95,134.95,171847,213336,66023,152991,24.979,41.307,141.4,0.990000,17.04
2022,07,03,22,46,51,01.073038,264.96,324.98,44.93,135.05,172240,213956,71047,152966,25.125,41.447,141.6,0.990000,17.02
2022,07,03,22,51,34,01.073521,265.08,324.92,44.95,135.05,172601,214356,66321,152862,25.245,41.561,141.7,0.990000,16.97
2022,07,03,22,56,17,01.074004,264.99,325.02,44.90,135.00,172798,214456,66706,153028,25.307,41.616,141.6,0.990000,17.00
2022,07,03,23,01,00,01.074447,265.02,325.02,45.00,135.00,172730,214370,66575,153143,25.278,41.588,141.6,0.990000,17.05
2022,07,03,23,05,43,01.074930,264.99,325.02,45.00,134.95,172498,214097,66415,152852,25.165,41.477,141.6,0.990000,16.90
2022,07,03,23,10,27,01.075414,265.02,324.92,44.95,134.95,172127,213562,67986,152706,25.020,41.333,141.6,0.990000,16.81
2022,07,03,23,15,11,01.075858,265.07,325.05,44.90,134.95,171699,213280,67468,152519,24.869,41.184,141.4,0.990000,16.80
2022,07,03,23,19,54,01.080340,264.99,324.92,45.00,134.95,171245,212522,68037,152397,24.691,41.008,141.4,0.990000,16.71
2022,07,03,23,24,36,01.080823,265.00,324.92,45.03,134.95,170484,211801,73427,152180,24.429,40.751,141.4,0.990000,16.67
2022,07,03,23,29,20,01.081306,265.02,324.98,45.00,135.08,169651,210739,69070,151968,24.099,40.430,141.5,0.990000,16.60
2022,07,03,23,34,03,01.081750,265.01,325.02,45.05,135.00,168784,209784,69189,150821,23.757,40.105,141.4,0.990000,16.09
2022,07,03,23,38,46,01.082233,265.07,324.94,45.00,135.05,167886,208914,68565,150905,23.436,39.801,141.5,0.990000,16.22
2022,07,03,23,43,30,01.082716,265.03,324.98,44.93,135.08,166997,207959,73288,151081,23.123,39.505,141.5,0.990000,16.36
2022,07,03,23,48,13,01.083159,264.95,324.98,44.90,135.00,166213,207073,68717,150472,22.802,39.200,141.5,0.990000,16.11
2022,07,03,23,52,57,01.083643,265.04,325.05,45.03,135.08,165407,206177,68340,150973,22.481,38.895,141.5,0.990000,16.38
2022,07,03,23,57,40,01.084126,264.99,325.05,45.00,135.05,164626,205210,67928,150846,22.159,38.588,141.4,0.990000,16.32
2022,07,04,00,02,24,01.084610,265.00,325.02,44.91,135.00,163682,204310,67423,151737,21.850,38.294,141.3,0.990000,16.87
2022,07,04,00,07,08,01.085054,265.06,324.92,44.98,135.08,162963,203551,72165,151226,21.567,38.025,141.4,0.990000,16.64
2022,07,04,00,11,51,01.085537,265.00,325.05,45.00,134.95,162329,202879,68029,151405,21.312,37.785,141.3,0.990000,16.77
2022,07,04,00,16,34,01.090020,265.02,325.05,44.90,135.05,161707,202223,68899,151748,21.076,37.565,141.4,0.990000,16.97
2022,07,04,00,21,18,01.090503,265.02,325.02,44.90,135.00,161100,201592,69396,151782,20.860,37.363,141.4,0.990000,17.04
2022,07,04,00,26,00,01.090945,265.07,325.05,45.03,135.05,160532,201006,71421,152548,20.665,37.181,141.4,0.990000,17.44
2022,07,04,00,30,43,01.091429,265.02,325.02,45.05,134.95,160110,200315,71749,152550,20.488,37.016,141.3,0.990000,17.43
2022,07,04,00,35,26,01.091912,265.02,325.05,44.95,134.95,159719,200052,92958,152716,20.334,36.873,141.4,0.990000,17.45
2022,07,04,00,40,09,01.092354,265.00,325.05,45.04,135.05,159354,199818,74508,151964,20.202,36.750,141.5,0.990000,17.22
2022,07,04,00,44,51,01.092837,264.95,324.99,45.00,135.05,158997,199501,128167,152236,20.086,36.644,141.5,0.990000,17.15
2022,07,04,00,49,34,01.093320,265.02,324.98,45.05,134.96,158789,199172,126939,150720,19.984,36.550,141.5,0.990000,16.44
2022,07,04,00,54,17,01.093802,265.07,324.92,45.00,135.00,158578,198923,124646,152876,19.895,36.469,141.5,0.990000,17.45
2022,07,04,00,59,00,01.094245,265.07,325.03,45.00,134.95,158347,198773,137482,152378,19.821,36.404,141.5,0.990000,17.19
2022,07,04,01,03,43,01.094728,264.95,325.03,45.05,135.00,158186,198606,136941,151561,19.761,36.353,141.4,0.990000,16.83
2022,07,04,01,08,26,01.095211,265.08,325.05,44.90,135.07,158078,198490,129245,144824,19.712,36.310,141.4,0.990000,13.69
2022,07,04,01,13,08,01.095653,265.02,324.92,44.90,135.05,157985,198334,110377,142582,19.671,36.275,141.3,0.990000,12.70
2022,07,04,01,17,51,01.100136,265.03,325.02,44.90,135.00,157850,198346,104000,140241,19.635,36.242,141.3,0.990000,11.65
2022,07,04,01,22,35,01.100619,265.03,325.05,44.96,135.05,157774,198165,104020,140911,19.599,36.208,141.3,0.990000,11.96
2022,07,04,01,27,18,01.101103,265.08,325.00,44.88,135.07,157652,198065,91299,151903,19.563,36.173,141.4,0.990000,17.24
2022,07,04,01,32,01,01.101545,265.00,325.02,44.95,135.00,157596,197876,68894,147009,19.520,36.129,141.4,0.990000,15.03
2022,07,04,01,36,44,01.102028,265.08,324.92,44.98,134.95,157330,197613,84374,147767,19.431,36.042,141.3,0.990000,15.35
2022,07,04,01,41,27,01.102511,264.95,325.05,44.91,135.05,156994,197315,68455,147809,19.288,35.908,141.6,0.990000,15.46
2022,07,04,01,46,09,01.102953,265.00,325.05,45.00,135.05,156510,196595,134029,147095,19.087,35.716,141.7,0.990000,14.81
2022,07,04,01,50,52,01.103437,265.08,325.03,45.00,135.00,155868,195905,135804,146887,18.833,35.475,141.7,0.990000,14.74
2022,07,04,01,55,34,01.103918,265.00,324.92,45.00,135.08,155173,195175,132001,142234,18.552,35.216,141.8,0.990000,12.56
2022,07,04,02,00,17,01.104401,265.07,325.02,44.96,135.05,154335,194191,135398,142677,18.222,34.911,141.8,0.990000,12.80
2022,07,04,02,05,00,01.104844,265.00,324.92,44.95,135.05,153404,193077,135437,142168,17.859,34.571,141.9,0.990000,12.60
2022,07,04,02,09,44,01.105328,265.02,325.02,44.91,135.08,152582,192375,133248,141881,17.524,34.261,141.8,0.990000,12.54
2022,07,04,02,14,27,01.105811,265.02,324.92,44.91,135.05,151859,191680,135277,139720,17.241,34.001,141.9,0.990000,11.54
2022,07,04,02,24,56,01.110839,264.99,325.04,44.98,135.01,150943,190673,133587,138805,16.885,33.674,141.7,0.990000,11.16
2022,07,04,02,29,39,01.111322,265.08,324.98,44.90,135.00,150320,190024,132808,135946,16.630,33.437,141.7,0.990000,9.79
2022,07,04,02,34,21,01.111805,265.00,325.02,45.02,134.95,149983,189767,131401,134817,16.525,33.340,141.7,0.990000,9.31
2022,07,04,02,39,03,01.112247,264.95,325.04,45.03,135.00,149875,189188,131424,136306,16.455,33.276,141.7,0.990000,9.95
2022,07,04,02,43,47,01.112730,265.02,325.05,45.03,135.08,149693,189463,128498,137052,16.409,33.235,141.9,0.990000,10.45
2022,07,04,02,48,29,01.113213,265.06,324.93,45.00,135.08,149604,189454,129030,137466,16.389,33.219,141.8,0.990000,10.68
2022,07,04,02,53,12,01.113655,264.95,325.05,45.03,135.08,149702,189364,131314,138645,16.377,33.211,141.9,0.990000,11.16
2022,07,04,02,57,54,01.114137,265.07,325.02,44.99,135.04,149606,188940,120942,138707,16.355,33.193,141.8,0.990000,11.23
2022,07,04,03,02,36,01.114619,265.00,325.02,44.90,135.08,149468,188592,100946,138875,16.318,33.160,141.7,0.990000,11.41
2022,07,04,03,07,18,01.115101,265.00,324.98,44.99,135.07,149359,188726,84222,139518,16.267,33.111,141.6,0.990000,11.84
2022,07,04,03,12,01,01.115544,265.00,325.05,44.95,135.05,149212,188828,66663,139922,16.213,33.058,141.8,0.990000,12.17
2022,07,04,03,16,43,01.120026,265.00,324.98,44.96,134.95,149104,188735,64672,140274,16.150,32.997,141.9,0.990000,12.34
2022,07,04,03,21,26,01.120509,265.08,325.02,44.95,135.05,148959,188129,66387,140845,16.075,32.924,141.9,0.990000,12.56
2022,07,04,03,26,09,01.120952,265.02,324.92,45.00,135.08,148733,188375,61151,141332,16.001,32.852,142.0,0.990000,12.90
2022,07,04,03,30,51,01.121434,264.95,324.92,44.95,135.05,148522,188197,64939,141832,15.927,32.781,142.0,0.990000,13.15
2022,07,04,03,35,34,01.121917,265.02,324.97,44.90,135.00,148424,187352,63958,142022,15.853,32.711,141.8,0.990000,13.16
2022,07,04,03,40,17,01.122359,264.95,324.98,45.00,135.07,148155,187609,68613,142213,15.780,32.642,141.8,0.990000,13.33
2022,07,04,03,45,00,01.122843,265.08,324.92,45.00,135.00,147997,187578,80860,142003,15.708,32.575,141.7,0.990000,13.18
2022,07,04,03,49,42,01.123324,265.00,324.93,44.95,134.95,147840,186810,61408,141675,15.637,32.509,141.7,0.990000,13.08
2022,07,04,03,54,26,01.123808,265.00,324.92,45.00,135.05,147673,187262,73189,141789,15.568,32.446,141.8,0.990000,13.12
2022,07,04,03,59,09,01.124251,265.00,324.98,44.91,135.05,147566,186851,77966,141627,15.508,32.391,141.7,0.990000,12.99
2022,07,04,04,03,52,01.124734,264.97,325.04,45.00,135.00,147361,186190,72311,141812,15.456,32.344,141.6,0.990000,13.13
2022,07,04,04,08,34,01.125216,264.99,325.02,44.95,135.04,147265,186724,66338,142240,15.410,32.301,141.8,0.990000,13.40
2022,07,04,04,13,16,01.125658,265.07,324.98,44.90,134.95,147140,186677,63293,142319,15.365,32.260,141.6,0.990000,13.47
2022,07,04,04,17,59,01.130142,265.06,324.98,44.92,135.05,147016,186497,62431,142106,15.320,32.216,141.7,0.990000,13.38
2022,07,04,04,22,42,01.130624,264.95,324.98,45.05,135.05,146915,186216,62141,142194,15.274,32.173,141.7,0.990000,13.42
2022,07,04,04,27,24,01.131106,265.02,325.05,45.00,134.95,146805,186051,64001,142660,15.228,32.130,141.6,0.990000,13.64
2022,07,04,04,32,06,01.131548,264.95,324.92,45.05,135.08,146753,186021,58626,143028,15.181,32.084,141.8,0.990000,13.82
2022,07,04,04,36,48,01.132030,265.00,325.02,45.02,134.95,146632,185438,62301,143177,15.131,32.037,141.7,0.990000,13.87
2022,07,04,04,41,30,01.132512,265.01,324.98,44.92,135.00,146446,185506,69255,143556,15.080,31.989,141.8,0.990000,14.06
2022,07,04,04,46,14,01.132955,265.00,324.98,45.00,135.05,146421,185842,62029,143869,15.030,31.941,141.8,0.990000,14.22
2022,07,04,04,50,56,01.133438,264.97,325.05,44.92,135.05,146157,185578,64031,144278,14.983,31.896,141.7,0.990000,14.48
2022,07,04,04,55,39,01.133920,265.07,324.92,44.96,135.04,146101,185115,59310,144307,14.941,31.857,141.7,0.990000,14.50
2022,07,04,05,00,22,01.134403,264.95,324.98,45.05,135.00,146069,184805,58357,144367,14.910,31.828,141.7,0.990000,14.51
2022,07,04,05,05,03,01.134844,264.95,325.04,45.05,135.00,145966,184973,61284,144467,14.892,31.811,141.6,0.990000,14.58
2022,07,04,05,09,44,01.135326,264.95,325.05,44.90,134.99,145916,185350,66042,144633,14.887,31.806,141.7,0.990000,14.66
2022,07,04,05,14,26,01.135807,264.95,324.98,44.89,134.99,145906,185214,61854,144835,14.894,31.812,141.7,0.990000,14.78
2022,07,04,05,19,08,01.140249,264.99,324.92,44.91,135.00,146085,185430,61584,145055,14.912,31.829,141.7,0.990000,14.82
2022,07,04,05,23,49,01.140731,264.96,325.05,45.00,134.95,146048,185429,61729,145502,14.938,31.853,141.6,0.990000,15.08
2022,07,04,05,28,32,01.141214,265.02,325.02,44.97,135.05,146221,185611,58803,146007,14.971,31.884,141.6,0.990000,15.28
2022,07,04,05,33,15,01.141657,265.07,324.98,44.90,134.95,146320,185626,58142,146289,15.009,31.920,141.6,0.990000,15.41
2022,07,04,05,37,57,01.142138,264.95,324.97,44.95,134.99,146310,185265,59890,146386,15.057,31.964,141.6,0.990000,15.51
2022,07,04,05,42,39,01.142620,265.00,325.02,44.90,134.95,146442,185363,58775,146450,15.115,32.019,141.6,0.990000,15.54
2022,07,04,05,47,22,01.143103,265.00,324.98,44.96,134.99,146585,185718,58776,146456,15.180,32.080,141.6,0.990000,15.54
2022,07,04,05,52,04,01.143545,265.00,325.02,44.95,134.95,146802,185720,57171,146284,15.247,32.143,141.6,0.990000,15.43
2022,07,04,05,56,47,01.144028,265.08,324.98,44.90,135.05,146985,186429,62419,146204,15.316,32.207,141.6,0.990000,15.35
2022,07,04,06,01,30,01.144511,265.08,324.98,44.96,134.98,147154,186445,59981,146151,15.385,32.271,141.6,0.990000,15.32
2022,07,04,06,06,12,01.144952,264.96,324.97,45.00,134.95,147286,186255,66240,146080,15.451,32.334,141.6,0.990000,15.26
2022,07,04,06,10,54,01.145434,265.02,324.98,45.04,135.05,147471,187062,68251,145886,15.519,32.396,141.7,0.990000,15.15
2022,07,04,06,15,37,01.145917,265.02,324.92,45.00,134.95,147690,187200,68218,145810,15.587,32.460,141.5,0.990000,15.07
2022,07,04,06,20,20,01.150400,264.99,325.02,44.95,134.95,147794,187189,67735,145200,15.656,32.524,141.7,0.990000,14.80
2022,07,04,06,25,02,01.150842,265.00,324.92,44.92,135.00,148021,187166,73897,144314,15.723,32.588,141.7,0.990000,14.30
2022,07,04,06,29,44,01.151324,265.02,325.02,44.94,134.99,148135,187050,72963,144375,15.789,32.649,141.7,0.990000,14.34
2022,07,04,06,34,25,01.151806,265.03,324.97,44.90,135.00,148257,187858,92787,144697,15.852,32.709,141.6,0.990000,14.43
2022,07,04,06,39,08,01.152248,265.02,325.02,45.01,135.07,148478,187974,88448,144640,15.911,32.766,141.7,0.990000,14.38
2022,07,04,06,43,51,01.152731,265.02,324.93,44.95,135.08,148568,188177,68584,144477,15.961,32.814,141.7,0.990000,14.41
2022,07,04,06,48,33,01.153213,265.02,325.02,45.05,134.95,148638,188247,75841,144674,15.999,32.850,141.5,0.990000,14.47
2022,07,04,06,53,16,01.153656,265.02,324.99,44.90,134.95,148748,188408,73247,144846,16.024,32.872,141.7,0.990000,14.54
2022,07,04,06,58,00,01.154140,265.00,325.05,44.90,135.05,148703,188430,69684,144983,16.036,32.883,141.7,0.990000,14.66
2022,07,04,07,02,42,01.154622,265.00,325.05,44.94,135.04,148776,187993,72195,144751,16.040,32.886,141.6,0.990000,14.49
2022,07,04,07,07,24,01.155104,265.00,325.02,45.00,135.05,148716,188108,69757,144214,16.041,32.886,141.7,0.990000,14.28
2022,07,04,07,12,06,01.155546,265.07,325.04,44.95,134.95,148817,188210,69803,144094,16.041,32.886,141.5,0.990000,14.17
2022,07,04,07,16,48,01.160028,264.95,324.98,45.00,135.05,148781,188250,64049,144008,16.039,32.883,141.6,0.990000,14.18
2022,07,04,07,21,31,01.160510,265.00,324.98,45.00,135.05,148771,188382,66227,144011,16.032,32.876,141.7,0.990000,14.17
2022,07,04,07,26,13,01.160953,264.95,325.05,44.96,135.08,148748,187710,63537,143910,16.018,32.862,141.7,0.990000,14.10
2022,07,04,07,30,55,01.161435,265.00,324.98,45.00,135.07,148664,187638,62518,143676,15.998,32.843,141.7,0.990000,14.01
2022,07,04,07,35,37,01.161916,265.07,325.03,44.96,135.00,148567,187825,62514,143294,15.974,32.819,141.6,0.990000,13.87
2022,07,04,07,40,18,01.162358,265.00,324.93,45.00,134.95,148562,187474,58360,143333,15.946,32.793,141.5,0.990000,13.86
2022,07,04,07,45,01,01.162840,264.95,324.94,44.90,135.00,148469,187915,58633,143177,15.915,32.763,141.6,0.990000,13.83
2022,07,04,07,49,44,01.163323,265.07,325.05,44.90,134.95,148398,187968,58343,143213,15.882,32.732,141.5,0.990000,13.85
2022,07,04,07,54,27,01.163806,264.96,325.05,44.97,135.08,148331,187906,58730,143515,15.853,32.704,141.6,0.990000,14.00
2022,07,04,07,59,09,01.164248,265.02,324.98,44.97,134.95,148311,187629,62594,143687,15.832,32.684,141.5,0.990000,14.04
2022,07,04,08,03,51,01.164730,264.99,325.02,44.90,135.00,148238,187578,58366,143906,15.823,32.674,141.7,0.990000,14.19
2022,07,04,08,08,33,01.165212,265.02,324.94,44.90,134.95,148265,187748,59023,144058,15.826,32.677,141.6,0.990000,14.25
2022,07,04,08,13,15,01.165654,265.00,325.02,45.03,134.95,148292,187764,58201,144423,15.840,32.691,141.5,0.990000,14.43
2022,07,04,08,17,58,01.170137,265.06,325.02,45.00,135.07,148372,187858,57815,144536,15.861,32.711,141.6,0.990000,14.47
2022,07,04,08,22,41,01.170620,265.07,324.96,44.90,135.07,148389,187862,57948,144546,15.887,32.735,141.7,0.990000,14.49
2022,07,04,08,27,24,01.171103,265.08,324.98,45.03,135.05,148491,187885,57670,144562,15.911,32.759,141.7,0.990000,14.48
2022,07,04,08,32,06,01.171545,265.02,324.92,44.91,135.04,148433,187926,57943,144496,15.931,32.777,141.7,0.990000,14.50
2022,07,04,08,36,49,01.172027,265.08,325.02,45.02,135.07,148589,188131,59047,144395,15.951,32.795,141.7,0.990000,14.39
2022,07,04,08,41,31,01.172509,265.00,325.03,44.91,135.00,148636,187579,58009,143246,15.975,32.818,141.6,0.990000,13.81